This is the latest recevied weather packets stored in our database for station/object LY3FF-10. If no packets are shown the sender has not sent any weather packets the latest 10 day(s).
| Time | Temp. | Humidity | Pressure | Rain* | Wind** | Luminosity | Snow |
|---|---|---|---|---|---|---|---|
| 1787575060 | 19.44° C | 56% | 996 hPa | - | - | - | - |
| 1787574230 | 21.67° C | 56% | 995.8 hPa | - | - | - | - |
| 1787573390 | 21.11° C | 57% | 995.8 hPa | - | - | - | - |
| 1787572554 | 21.11° C | 56% | 995.8 hPa | - | - | - | - |
| 1787571744 | 20.56° C | 60% | 995.9 hPa | - | - | - | - |
| 1787570860 | 19.44° C | 61% | 996.1 hPa | - | - | - | - |
| 1787570055 | 19.44° C | 61% | 995.9 hPa | - | - | - | - |
| 1787569200 | 18.33° C | 64% | 996 hPa | - | - | - | - |
| 1787568380 | 22.22° C | 64% | 996.1 hPa | - | - | - | - |
| 1787567515 | 32.22° C | 62% | 996.1 hPa | - | - | - | - |
| 1787566740 | 18.33° C | 63% | 996.2 hPa | - | - | - | - |
| 1787565915 | 18.33° C | 65% | 996.2 hPa | - | - | - | - |
| 1787565085 | 18.33° C | 69% | 996.3 hPa | - | - | - | - |
| 1787564255 | 17.78° C | 68% | 996.3 hPa | - | - | - | - |
| 1787563512 | 17.78° C | 69% | 996.4 hPa | - | - | - | - |
| 1787562660 | 17.78° C | 69% | 996.4 hPa | - | - | - | - |
| 1787561895 | 17.78° C | 70% | 996.5 hPa | - | - | - | - |
| 1787561110 | 18.33° C | 71% | 996.4 hPa | - | - | - | - |
| 1787560215 | 16.67° C | 74% | 996.4 hPa | - | - | - | - |
| 1787559355 | 17.22° C | 74% | 996.5 hPa | - | - | - | - |
| 1787558515 | 17.22° C | 74% | 996.5 hPa | - | - | - | - |
| 1787557687 | 16.67° C | 76% | 996.3 hPa | - | - | - | - |
| 1787556904 | 16.67° C | 78% | 996.3 hPa | - | - | - | - |
| 1787556050 | 16.11° C | 79% | 996.3 hPa | - | - | - | - |
| 1787555295 | 15.56° C | 80% | 996.2 hPa | - | - | - | - |
* Rain since midnight (hover to see other rain measurements)
** Current wind speed in m/s (hover to see current wind gust speed)